Location: Marcé
(47.5801°N, 0.3280°W)
Time: 01:47:53
(UTC+01:00)

Courier 1B - Visible Passes

Search period start: 30 November 2021 00:00
Search period end: 10 December 2021 00:00
Orbit: 962 x 1209 km, 28.3° (Epoch: 29 November)

Date Brightness Start Highest point End Pass type
(mag) Time Alt. Az. Time Alt. Az. Time Alt. Az.
30 Nov 9.6 20:05:54 10° SSW 20:09:12 14° S 20:09:49 14° S visible
01 Dec 9.7 19:12:38 10° SSW 19:15:44 13° S 19:18:46 10° SE visible
01 Dec 9.9 21:05:09 10° SW 21:06:21 12° SSW 21:06:21 12° SSW visible
02 Dec 9.8 18:19:38 10° S 18:22:15 12° SSE 18:24:50 10° SE visible
02 Dec 9.6 20:11:19 10° SW 20:15:00 15° S 20:16:00 14° S visible
03 Dec 9.7 19:17:40 10° SSW 19:21:31 15° S 19:25:15 10° SE visible
03 Dec 10.0 21:11:39 10° SW 21:12:33 11° SSW 21:12:33 11° SSW visible
04 Dec 9.8 18:24:08 10° SSW 18:28:00 15° S 18:31:45 10° SE visible
04 Dec 9.7 20:17:20 10° SW 20:20:45 14° S 20:22:15 13° S visible
05 Dec 9.8 19:23:20 10° SW 19:27:17 15° S 19:31:07 10° SSE visible
06 Dec 9.8 18:29:30 10° SW 18:33:46 16° S 18:37:53 10° SE visible
06 Dec 9.9 20:24:13 10° SW 20:26:29 12° SSW 20:28:41 10° S visible
07 Dec 9.9 19:29:35 10° SW 19:33:00 14° SSW 19:36:21 10° SSE visible
08 Dec 9.9 18:35:25 10° SW 18:39:30 15° S 18:43:30 10° SSE visible
09 Dec 10.0 17:41:28 10° SW 17:45:57 17° S 17:50:20 10° SSE visible
09 Dec 10.2 19:37:04 10° SSW 19:38:41 11° SSW 19:40:17 10° S visible
